[[{"header":{"parameterUnit":"m.s-1","parameterCategory":1,"la1":30.2991,"la2":30.254,"lo1":-89.0895,"lo2":-89.0444,"dy":0.0017,"dx":0.0017,"nx":28,"ny":28,"refTime":"2024-03-19T09:00:00:Z","depth":0,"parameterNumber":2,"parameterNumberName":"U-component_of_WINDS"},"data":[0,0,0,0,0,0,0,0,0,0,0,0,0,0,0,0,0,0,0,0,0,0,0,0,0,0,0,0,0,0,0,0,0,0,0,0,0,0,0,0,0,0,0,0,0,0,0,0,0,0,0,0,0,0,0,0,0,0,-2.6948,-2.695,0,-2.7063,-2.7064,-2.7065,-2.6951,-2.6947,-2.6942,-2.6938,-2.7059,-2.7066,-2.7073,0,0,0,0,0,0,0,0,0,0,0,0,0,-2.6632,-2.6639,-2.6948,-2.695,-2.6951,-2.7063,-2.7064,-2.7066,-2.6952,-2.6947,-2.6941,-2.6936,-2.7056,-2.7065,-2.7074,0,0,0,0,0,0,0,0,0,0,0,0,0,-2.6761,-2.6641,-2.6948,-2.6908,-2.6905,-2.7062,-2.7064,-2.7066,-2.6953,-2.6947,-2.694,-2.6934,-2.7053,-2.7064,-2.7075,-2.7278,0,0,-2.7109,-2.7114,0,0,0,0,0,0,0,0,-2.6754,-2.6772,-2.6912,-2.6911,-2.6908,-2.6986,-2.6997,-2.7137,-2.6955,-2.6935,-2.6938,-2.693,-2.704,-2.7052,-2.7088,-2.7284,-2.7289,-2.711,-2.7117,-2.7121,-2.7124,0,0,0,0,0,0,0,-2.6745,-2.6767,-2.6994,-2.6914,-2.6912,-2.6884,-2.6895,-2.7023,-2.7024,-2.6936,-2.6928,-2.6943,-2.7038,-2.7078,-2.709,-2.7291,-2.711,-2.7119,-2.7126,-2.7131,-2.7658,-2.7665,0,0,0,0,0,0,-2.674,-2.676,-2.699,-2.6997,-2.6813,-2.6896,-2.6908,-2.6968,-2.7022,-2.7024,-2.6949,-2.6938,-2.7062,-2.7077,-2.7094,-2.7336,-2.7121,-2.7132,-2.7138,-2.7651,-2.7659,-2.7667,0,0,0,0,0,0,-2.6734,-2.6762,-2.6985,-2.6876,-2.6903,-2.6908,-2.6977,-2.6974,-2.7014,-2.7032,-2.7032,-2.699,-2.7057,-2.7078,-2.7233,-2.7338,-2.7137,-2.7147,-2.7642,-2.7653,-2.7663,-2.7821,0,0,0,0,0,0,-2.6725,-2.676,-2.6837,-2.6879,-2.6909,-2.7123,-2.6983,-2.6981,-2.7033,-2.7019,-2.707,-2.7072,-2.7054,-2.7217,-2.7244,-2.735,-2.7155,-2.7632,-2.7647,-2.766,-2.7806,-2.7836,-2.7861,0,0,0,0,0,-2.6714,-2.6878,-2.6842,-2.687,-2.7006,-2.7129,-2.7146,-2.7121,-2.7042,-2.712,-2.7131,-2.707,-2.7322,-2.7234,-2.7263,-2.7374,-2.7626,-2.7643,-2.7659,-2.7794,-2.783,-2.7861,0,0,0,0,0,0,-2.6851,-2.6883,-2.6843,-2.7025,-2.7075,-2.7109,-2.7207,-2.716,-2.7234,-2.7219,-2.7184,-2.7197,-2.7361,-2.7382,-2.7284,-2.7573,-2.7461,-2.7484,-2.7554,-2.7588,-2.7615,-2.7608,-2.7165,0,0,0,0,0,-2.6901,-2.6998,-2.7021,-2.718,-2.7206,-2.7203,-2.7255,-2.7231,-2.7282,-2.7303,-2.7325,-2.7378,-2.7468,-2.7529,-2.7613,-2.7807,-2.7817,-2.7898,-2.7925,-2.7948,-2.7969,-2.8074,-2.811,-2.7722,-2.7722,-2.7721,0,0,-2.7009,-2.7038,-2.7102,-2.7208,-2.7243,-2.7345,-2.7222,-2.7334,-2.7409,-2.732,-2.7468,-2.7486,-2.7541,-2.7717,-2.7795,-2.774,-2.8078,-2.7969,-2.7987,-2.7996,-2.8094,-2.8131,-2.8164,-2.7733,-2.7731,-2.7729,0,0,-2.7256,-2.7287,-2.7423,-2.746,-2.7515,-2.7511,-2.7543,-2.7585,-2.7593,-2.774,-2.7675,-2.7763,-2.792,-2.7962,-2.8004,-2.8264,-2.8211,-2.8292,-2.8437,-2.8539,-2.8569,-2.8596,-2.869,-2.8724,-2.8313,-2.8313,-2.8313,0,-2.7382,-2.7532,-2.7498,-2.7616,-2.7664,-2.7586,-2.7723,-2.7761,-2.7842,-2.7877,-2.7813,-2.8007,-2.8039,-2.8223,-2.8286,-2.8322,-2.8359,-2.8288,-2.8567,-2.8594,-2.8619,-2.8708,-2.8743,-2.8323,-2.8321,-2.832,-2.832,0,-2.7685,-2.779,-2.7892,-2.7971,-2.803,-2.8157,-2.8143,-2.8207,-2.8177,-2.818,-2.833,-2.8364,-2.8454,-2.8495,-2.8468,-2.8676,-2.8639,-2.8572,-2.8459,-2.8666,-2.8749,-2.8783,-2.8336,-2.8333,-2.833,-2.8328,0,0,-2.8025,-2.8081,-2.8119,-2.8153,-2.8206,-2.8287,-2.8409,-2.8495,-2.8552,-2.8609,-2.8711,-2.8844,-2.8781,-2.8829,-2.8805,-2.8894,-2.9098,-2.8815,-2.8816,-2.8868,-2.933,-2.9382,-2.9422,-2.9062,-2.9068,-2.9073,-2.9326,0,-2.8275,-2.8487,-2.8459,-2.8663,-2.8759,-2.8684,-2.8791,-2.8835,-2.884,-2.8923,-2.8928,-2.9023,-2.8932,-2.8961,-2.9045,-2.9056,-2.9191,-2.9036,-2.9158,-2.9163,-2.915,-2.9466,-2.9522,-2.9758,-2.9358,-2.9364,-2.9368,0,-2.8596,-2.8663,-2.8876,-2.8913,-2.8952,-2.9049,-2.9125,-2.9204,-2.9252,-2.9249,-2.9302,-2.9261,-2.9383,-2.9265,-2.9434,-2.933,-2.9377,-2.9389,-2.9398,-2.941,-2.928,-2.9489,-2.9833,-2.987,-2.9418,-2.9414,-2.941,0,-2.8824,-2.8968,-2.9113,-2.9145,-2.9191,-2.9261,-2.9283,-2.9324,-2.9378,-2.9444,-2.9478,-2.9558,-2.9603,-2.9665,-2.9647,-2.9563,-2.982,-2.9701,-2.9822,-2.9823,-2.9882,-2.988,-3.0242,-2.9909,-2.9909,-2.9908,-2.9907,0,-2.9108,-2.9242,-2.9217,-2.9307,-2.9454,-2.942,-2.9567,-2.958,-2.9617,-2.9708,-2.9647,-2.9735,-2.9704,-2.9789,-2.9775,-2.9917,-2.9938,-2.9939,-2.9935,-2.9947,-2.9947,-2.9979,-2.9963,-2.9918,-2.9916,-2.9914,-2.9912,0,-2.939,-2.9378,-2.9532,-2.9562,-2.9573,-2.9681,-2.9706,-2.9791,-2.9789,-2.9906,-2.9931,-2.993,-3.0027,-3.0013,-3.0122,-3.0112,-3.029,-3.0264,-3.0274,-3.0269,-3.0392,-3.0381,-3.079,-3.0842,-3.0474,-3.0477,-3.048,0,-2.9573,-2.9674,-2.9714,-2.977,-2.9797,-2.9889,-2.9942,-2.9911,-2.9969,-3.003,-3.0108,-3.0199,-3.0271,-3.0429,-3.0438,-3.052,-3.0497,-3.0635,-3.051,-3.0518,-3.0501,-3.0497,-3.0507,-3.0661,-3.0665,-3.0668,-3.0671,0,-2.9899,-2.9888,-2.9966,-3.0043,-3.0108,-3.0167,-3.022,-3.027,-3.0244,-3.0312,-3.041,-3.0465,-3.0574,-3.0666,-3.0743,-3.0766,-3.0716,-3.0709,-3.0742,-3.0757,-3.0759,-3.0761,-3.0344,-3.0701,-3.0698,-3.0696,-3.0694,-3.0693,-3.0138,-3.0224,-3.0266,-3.0355,-3.0391,-3.0441,-3.0522,-3.053,-3.061,-3.0697,-3.0673,-3.0784,-3.0827,-3.0925,-3.0956,-3.1043,-3.0993,-3.104,-3.1052,-3.1065,-3.108,-3.0743,-3.1056,-3.1056,-3.1055,-3.1054,-3.1053,0,-3.0463,-3.0485,-3.0567,-3.0643,-3.0713,-3.0655,-3.0711,-3.0774,-3.0872,-3.0916,-3.0987,-3.1099,-3.1187,-3.1201,-3.1284,-3.1351,-3.133,-3.1374,-3.137,-3.1376,-3.112,-3.1084,-3.139,-3.139,-3.139,-3.139,-3.139,-3.139,-3.064,-3.0783,-3.0776,-3.0935,-3.0956,-3.1064,-3.11,-3.1146,-3.1181,-3.1309,-3.1381,-3.1389,-3.1421,-3.1506,-3.1584,-3.1585,-3.162,-3.1674,-3.1667,-3.1428,-3.1395,-3.1363,-3.1329,-3.1681,-3.1682,-3.1917,-3.1919,-3.1921]},{"header":{"parameterUnit":"m.s-1","parameterCategory":1,"la1":30.2991,"la2":30.254,"lo1":-89.0895,"lo2":-89.0444,"dy":0.0017,"dx":0.0017,"nx":28,"ny":28,"refTime":"2024-03-19T09:00:00:Z","depth":0,"parameterNumber":3,"parameterNumberName":"V-component_of_WINDS"},"data":[0,0,0,0,0,0,0,0,0,0,0,0,0,0,0,0,0,0,0,0,0,0,0,0,0,0,0,0,0,0,0,0,0,0,0,0,0,0,0,0,0,0,0,0,0,0,0,0,0,0,0,0,0,0,0,0,0,0,-5.3897,-5.3898,0,-5.3995,-5.3996,-5.3997,-5.3895,-5.3891,-5.3888,-5.3884,-5.3981,-5.3987,-5.3993,0,0,0,0,0,0,0,0,0,0,0,0,0,-5.3617,-5.3622,-5.3897,-5.3898,-5.3899,-5.3995,-5.3996,-5.3997,-5.3896,-5.3891,-5.3887,-5.3882,-5.3979,-5.3987,-5.3994,0,0,0,0,0,0,0,0,0,0,0,0,0,-5.3729,-5.3624,-5.3896,-5.386,-5.3858,-5.3994,-5.3996,-5.3998,-5.3897,-5.3891,-5.3885,-5.388,-5.3977,-5.3986,-5.3995,-5.4171,0,0,-5.4024,-5.4028,0,0,0,0,0,0,0,0,-5.3723,-5.3739,-5.3864,-5.3863,-5.3861,-5.3927,-5.3933,-5.4056,-5.3899,-5.3882,-5.3884,-5.3877,-5.3968,-5.3977,-5.4009,-5.4176,-5.418,-5.4025,-5.403,-5.4034,-5.4037,0,0,0,0,0,0,0,-5.3715,-5.3734,-5.3935,-5.3866,-5.3864,-5.3837,-5.3847,-5.3956,-5.3957,-5.3883,-5.3876,-5.3889,-5.3965,-5.4,-5.401,-5.4181,-5.4024,-5.4033,-5.4038,-5.4042,-5.4494,-5.45,0,0,0,0,0,0,-5.3712,-5.3729,-5.3932,-5.3938,-5.3776,-5.3847,-5.3858,-5.3912,-5.3955,-5.3956,-5.3894,-5.3884,-5.3987,-5.3999,-5.4013,-5.422,-5.4034,-5.4043,-5.4048,-5.4488,-5.4496,-5.4502,0,0,0,0,0,0,-5.3706,-5.3731,-5.3928,-5.3832,-5.3855,-5.3858,-5.392,-5.3917,-5.3951,-5.3964,-5.3963,-5.3929,-5.3983,-5.4,-5.4132,-5.4222,-5.4047,-5.4056,-5.448,-5.449,-5.4499,-5.4638,0,0,0,0,0,0,-5.3699,-5.3729,-5.3798,-5.3834,-5.386,-5.4048,-5.3925,-5.3923,-5.3968,-5.3956,-5.3997,-5.3998,-5.3979,-5.4119,-5.4142,-5.4232,-5.4063,-5.4472,-5.4485,-5.4496,-5.4625,-5.4651,-5.4673,0,0,0,0,0,-5.3689,-5.3833,-5.3802,-5.3827,-5.3946,-5.4053,-5.4068,-5.4045,-5.3976,-5.4043,-5.4051,-5.3996,-5.4209,-5.4133,-5.4158,-5.4253,-5.4466,-5.4481,-5.4495,-5.4614,-5.4646,-5.4672,0,0,0,0,0,0,-5.3807,-5.3837,-5.3803,-5.3963,-5.4007,-5.4036,-5.4121,-5.4079,-5.4142,-5.4128,-5.4095,-5.4106,-5.4245,-5.4262,-5.4177,-5.4424,-5.4326,-5.4346,-5.4408,-5.4438,-5.4462,-5.4455,-5.4071,0,0,0,0,0,-5.3852,-5.3938,-5.3959,-5.4098,-5.4121,-5.4118,-5.4163,-5.4142,-5.4185,-5.4202,-5.4219,-5.4262,-5.4338,-5.4389,-5.446,-5.4626,-5.4633,-5.4704,-5.4728,-5.4747,-5.4765,-5.4852,-5.4883,-5.455,-5.4549,-5.4549,0,0,-5.3945,-5.3972,-5.4029,-5.4122,-5.4153,-5.4241,-5.4134,-5.4232,-5.4296,-5.4216,-5.4342,-5.4356,-5.4401,-5.4551,-5.4618,-5.4569,-5.4858,-5.4765,-5.4781,-5.4788,-5.487,-5.4901,-5.4929,-5.4559,-5.4557,-5.4556,0,0,-5.416,-5.419,-5.4309,-5.4341,-5.4389,-5.4385,-5.4414,-5.4449,-5.4456,-5.4581,-5.4523,-5.4598,-5.473,-5.4764,-5.4799,-5.5023,-5.4975,-5.5047,-5.5172,-5.5257,-5.5284,-5.5307,-5.5386,-5.5414,-5.5065,-5.5065,-5.5065,0,-5.427,-5.4402,-5.4374,-5.4476,-5.4518,-5.4451,-5.4569,-5.4601,-5.467,-5.47,-5.4644,-5.4807,-5.4833,-5.4989,-5.5043,-5.5074,-5.5104,-5.5043,-5.5282,-5.5305,-5.5326,-5.5401,-5.5431,-5.5073,-5.5072,-5.5072,-5.5071,0,-5.4533,-5.4625,-5.4715,-5.4783,-5.4835,-5.4944,-5.4932,-5.4987,-5.496,-5.4962,-5.5089,-5.5117,-5.5191,-5.5226,-5.5201,-5.5378,-5.5346,-5.5287,-5.5188,-5.5367,-5.5437,-5.5465,-5.5085,-5.5082,-5.508,-5.5078,0,0,-5.4827,-5.4877,-5.4911,-5.494,-5.4986,-5.5056,-5.5161,-5.5234,-5.5282,-5.533,-5.5416,-5.5529,-5.5474,-5.5513,-5.5491,-5.5566,-5.574,-5.5497,-5.5497,-5.554,-5.5934,-5.5978,-5.6012,-5.5708,-5.5713,-5.5717,-5.593,0,-5.5042,-5.5227,-5.5204,-5.5379,-5.5462,-5.5398,-5.5489,-5.5526,-5.553,-5.5599,-5.5601,-5.5681,-5.5604,-5.5627,-5.5698,-5.5704,-5.5818,-5.5688,-5.5786,-5.579,-5.5777,-5.6048,-5.6096,-5.6295,-5.5957,-5.5962,-5.5965,0,-5.5319,-5.5378,-5.5562,-5.5593,-5.5627,-5.571,-5.5774,-5.5842,-5.5881,-5.5878,-5.5921,-5.5885,-5.5988,-5.5887,-5.6027,-5.5939,-5.5977,-5.5986,-5.5993,-5.6001,-5.5888,-5.6063,-5.6358,-5.6388,-5.6008,-5.6004,-5.6001,0,-5.5513,-5.5638,-5.5764,-5.5791,-5.5831,-5.589,-5.591,-5.5944,-5.5989,-5.6044,-5.6072,-5.6138,-5.6175,-5.6226,-5.6207,-5.6136,-5.6351,-5.6249,-5.635,-5.635,-5.6398,-5.6396,-5.6703,-5.6424,-5.6424,-5.6423,-5.6422,0,-5.5756,-5.5871,-5.5851,-5.5929,-5.6054,-5.6026,-5.615,-5.6161,-5.6192,-5.6269,-5.6216,-5.6289,-5.626,-5.6331,-5.6317,-5.6434,-5.6451,-5.645,-5.6445,-5.6455,-5.6455,-5.6479,-5.6465,-5.6431,-5.6429,-5.6428,-5.6426,0,-5.5995,-5.5987,-5.6119,-5.6146,-5.6155,-5.6247,-5.6269,-5.634,-5.6338,-5.6436,-5.6457,-5.6454,-5.6534,-5.6521,-5.6609,-5.6599,-5.6746,-5.6724,-5.6733,-5.6727,-5.6829,-5.6819,-5.7163,-5.7206,-5.69,-5.6903,-5.6905,0,-5.615,-5.6237,-5.6273,-5.6321,-5.6345,-5.6423,-5.6468,-5.6442,-5.649,-5.6541,-5.6606,-5.6681,-5.674,-5.687,-5.6875,-5.6942,-5.692,-5.7036,-5.693,-5.6937,-5.6921,-5.6916,-5.6924,-5.7057,-5.7061,-5.7064,-5.7066,0,-5.6426,-5.6418,-5.6485,-5.6551,-5.6606,-5.6657,-5.6702,-5.6744,-5.6721,-5.6778,-5.686,-5.6905,-5.6995,-5.707,-5.7131,-5.7149,-5.7104,-5.7099,-5.7126,-5.7137,-5.7138,-5.7138,-5.6789,-5.7091,-5.7089,-5.7087,-5.7086,-5.7085,-5.6628,-5.6701,-5.6737,-5.6813,-5.6844,-5.6887,-5.6955,-5.6962,-5.7029,-5.7101,-5.7081,-5.7173,-5.7207,-5.7285,-5.731,-5.738,-5.7337,-5.7376,-5.7386,-5.7396,-5.7408,-5.7127,-5.7391,-5.739,-5.739,-5.7389,-5.7388,0,-5.69,-5.692,-5.699,-5.7055,-5.7114,-5.7067,-5.7113,-5.7166,-5.7248,-5.7284,-5.7343,-5.7435,-5.7506,-5.7516,-5.7583,-5.7637,-5.7618,-5.7656,-5.7651,-5.7656,-5.7443,-5.7413,-5.767,-5.767,-5.767,-5.767,-5.767,-5.767,-5.7049,-5.717,-5.7165,-5.7299,-5.7317,-5.7408,-5.7438,-5.7476,-5.7505,-5.7611,-5.767,-5.7676,-5.7701,-5.777,-5.7832,-5.7833,-5.786,-5.7906,-5.7899,-5.7699,-5.7671,-5.7644,-5.7616,-5.7912,-5.7912,-5.8105,-5.8107,-5.8109]}]]